ALOS-2 (39766 NORAD) Tracking and Keplerian Element Data

This shows tracking and keplerian element data for the satellite.

Feedback or suggestion? Click here.




ElementValue
Catalog39766
NameALOS-2
Epoch Orbit22410
Epoch Day198.83477958
Epoch Year2018
RAAN295.4813
Inclination97.9225
Eccentricity0.000148
Argument of Perigee82.9991
Mean Anonmoly277.1393
Mean Motion14.79473143
Decay Rate1.01E-06
L11 39766U 14029A 18198.83477958 .00000101 00000-0 20453-4 0 9995
L22 39766 97.9225 295.4813 0001480 82.9991 277.1393 14.79473143224104

Live tracking and technical data element details for ALOS-2 (NORAD 39766). ALOS-2 can be tracked NOW for your location showing map with azimuth and elevation plus other details from your city location.

Track the satellite on the map from your city or location and see movement details for azimuth, elevation, latitude, longitude, range, height, and movement on the map or in text.







IsCatalogInMostPopularTable: catalog: 39766, numindb: 53
Update: records affected: 1



GetName: 39766 ALOS-2

Hit Count: updated at: Thu, 19 Jul 2018 21:29:30 GMT